Wind_Speed
31 30 30 28 29 29 27 29 19 4 6 17 13 33 33 32 31 29 28 25 25 26 25 25 23 23 24 23 25 26 26 26 27 26 27 26 24 19
29 29 29 26 29 29 29 26 23 9 7 12 27 15 32 32 30 30 30 28 27 26 25 26 24 24 23 23 23 25 26 26 26 24 19 15 10 9
28 28 28 27 26 27 31 32 24 18 7 11 26 20 22 30 28 29 31 30 26 25 25 24 24 24 23 19 19 20 19 17 13 8 11 12 12 13
28 27 28 27 27 28 28 28 28 25 17 14 23 22 15 29 29 20 18 18 18 18 21 19 16 15 18 14 18 16 15 12 15 17 16 15 13 11
28 29 27 28 26 25 28 28 26 28 25 16 15 21 12 18 21 19 16 16 14 13 10 9 10 14 14 16 18 17 16 17 20 21 18 14 9 7
29 29 30 31 28 28 29 29 28 24 24 23 20 17 20 21 25 25 19 17 16 12 8 10 12 12 12 14 12 17 18 16 14 11 10 8 6 5
28 29 31 32 32 33 29 27 28 26 24 21 16 9 15 20 25 25 21 19 12 11 12 12 12 12 11 11 11 11 10 10 9 8 6 5 2 1
26 29 30 29 31 34 37 35 38 31 24 20 17 16 18 22 24 26 22 11 5 14 19 17 15 15 14 11 9 9 9 9 8 7 5 4 2 0
25 25 26 28 30 32 31 31 36 37 35 31 26 24 24 26 23 21 19 15 12 17 24 19 18 15 14 12 10 10 9 8 8 6 3 4 2 1
21 21 20 18 20 29 29 25 22 21 27 24 29 28 30 30 26 25 26 21 12 18 22 8 19 15 15 12 10 8 6 4 5 7 4 2 3 4
15 15 14 15 17 19 25 23 17 15 15 21 22 22 21 21 21 21 20 23 5 9 20 11 16 15 15 14 11 6 6 4 7 6 2 1 1 4
15 15 16 16 18 17 21 25 24 20 17 15 14 14 13 13 16 17 18 21 10 5 16 11 20 14 7 15 12 8 6 5 4 6 1 2 3 5
15 12 13 16 17 19 20 26 25 23 20 17 16 14 12 10 8 7 12 14 13 5 17 14 17 15 7 7 15 10 8 7 5 5 5 5 6 4
17 13 11 12 22 23 22 22 22 26 22 21 19 17 16 15 14 12 11 11 8 8 20 12 12 18 11 7 6 13 9 5 7 6 3 4 2 3
21 22 23 21 21 20 21 22 26 25 25 24 23 21 20 20 20 21 19 19 20 18 12 6 12 17 14 12 13 14 14 8 7 3 4 3 4 6
29 25 25 25 26 26 26 23 22 24 25 28 28 25 23 21 23 23 26 25 27 23 19 16 15 14 17 17 20 15 10 6 3 3 5 4 5 5
30 26 26 30 29 26 25 26 25 26 28 27 28 23 25 25 24 19 15 18 23 21 20 18 16 17 17 17 15 9 7 2 3 4 6 6 5 4
33 25 22 23 24 22 23 22 26 26 27 27 24 24 25 24 23 22 23 25 25 20 18 17 18 18 15 11 8 7 3 3 4 5 5 8 11 9
31 24 25 23 20 26 24 21 23 23 25 27 29 27 26 25 24 23 22 22 22 18 14 11 8 7 4 1 3 3 3 4 6 8 9 10 16 15
28 28 24 22 24 24 23 25 27 26 25 25 24 24 25 25 24 22 19 20 20 18 16 12 10 7 4 5 3 2 3 7 8 10 15 14 16 12
26 27 25 25 26 26 26 26 25 26 24 23 22 21 21 22 22 20 18 19 17 16 15 12 9 7 6 4 3 2 5 5 8 10 11 12 12 13
26 26 25 25 25 26 26 26 26 24 23 22 20 18 17 16 18 17 16 17 15 13 12 10 6 4 6 6 5 6 10 12 7 4 6 9 10 6
25 26 25 24 22 22 22 22 23 22 20 19 18 16 15 16 14 13 12 11 8 7 5 4 4 5 7 7 6 7 11 10 13 14 15 14 15 18
Wind_Direction
222 228 227 226 224 215 202 193 183 162 181 195 178 217 221 222 221 215 218 221 222 224 225 227 231 237 243 247 252 258 265 267 269 272 274 276 275 278
227 222 224 220 219 212 203 192 186 172 173 180 199 217 221 221 223 228 226 226 224 225 228 232 236 240 244 250 256 260 266 269 273 273 270 264 258 228
224 222 218 216 206 207 208 202 198 186 150 190 198 202 230 214 216 223 221 222 225 224 225 230 237 241 241 242 258 263 259 263 265 237 218 223 222 231
221 219 217 214 204 200 193 190 190 189 181 167 189 211 213 207 205 192 187 191 197 207 216 220 223 230 233 233 237 249 261 234 205 203 201 189 197 210
219 218 218 211 205 195 192 181 181 184 189 181 180 205 187 185 168 169 172 174 178 182 193 204 230 236 245 249 249 254 240 229 219 211 210 216 224 233
225 225 216 214 207 201 196 191 186 182 182 178 180 181 190 191 193 170 163 169 165 167 200 228 227 230 222 216 223 209 204 200 204 213 212 215 230 242
225 224 218 220 223 211 194 188 183 186 187 178 173 162 174 172 179 178 174 177 175 193 192 189 198 192 189 193 195 199 201 196 195 200 208 213 205 305
213 219 219 217 212 209 213 211 209 192 191 190 188 178 180 192 184 182 170 168 172 211 198 182 196 194 189 185 182 179 182 185 190 183 169 143 126 282
216 217 216 221 223 215 207 204 205 204 203 200 193 191 186 186 177 182 192 201 193 199 199 174 189 182 187 178 180 185 188 188 182 191 165 120 178 284
216 221 220 215 215 218 209 200 194 197 205 200 199 192 205 208 214 221 220 202 180 182 191 145 181 171 178 173 171 188 194 191 155 111 91 77 87 28
197 204 208 207 206 212 196 170 157 150 162 185 188 192 193 198 205 215 200 178 147 177 190 160 167 155 166 169 180 197 205 215 133 133 121 68 28 332
180 190 196 200 200 199 198 181 156 155 154 153 155 170 175 185 196 204 207 184 143 148 189 155 157 155 158 186 180 189 173 135 110 144 110 235 270 298
159 163 184 191 193 199 201 187 180 172 157 150 139 135 136 137 141 168 191 205 175 135 175 172 169 159 125 141 180 197 151 141 153 171 211 273 286 269
143 136 139 170 185 191 189 189 178 164 152 140 130 119 117 114 112 114 124 147 159 158 162 171 163 167 142 135 147 169 178 178 185 193 256 294 245 231
134 123 118 129 140 137 141 154 158 153 146 135 122 118 117 116 117 114 111 109 110 117 134 159 170 166 161 149 149 163 153 156 174 221 290 237 222 218
121 119 118 115 115 117 123 131 138 140 138 126 119 121 120 118 113 115 113 112 106 97 100 104 123 146 131 139 148 146 166 157 200 286 284 259 249 260
109 103 101 105 99 94 99 109 112 118 114 117 117 114 115 115 113 115 112 115 111 110 107 108 115 125 123 134 126 138 145 165 304 305 310 298 263 263
98 82 79 83 88 92 94 93 107 112 118 120 114 118 119 116 114 116 120 117 112 111 115 124 127 123 116 94 115 123 120 81 17 358 352 332 311 254
92 90 83 82 89 91 96 99 101 113 122 124 127 127 125 123 123 120 121 118 109 104 102 117 151 155 89 100 129 100 59 2 330 334 340 327 312 309
87 86 90 93 90 98 106 112 116 121 121 121 122 125 128 129 127 124 125 124 117 106 88 84 89 100 114 144 132 78 354 340 328 326 330 327 319 320
77 86 95 100 108 116 116 116 119 116 117 120 120 122 125 125 118 118 116 128 122 111 96 89 83 79 78 82 43 18 357 334 323 314 324 325 323 321
90 96 105 110 114 115 115 115 114 115 116 116 117 120 123 128 121 116 119 117 109 107 101 102 99 95 81 65 51 20 350 340 340 311 312 323 306 292
103 108 110 111 113 115 117 116 114 112 115 119 118 117 123 118 121 119 115 114 110 97 87 93 82 77 67 56 47 19 2 354 348 338 327 334 313 267
Height
761 764 767 768 770 773 775 776 778 784 788 795 798 804 808 813 816 820 823 827 831 834 837 841 844 846 848 849 850 851 852 852 852 852 853 852 852 852
755 759 762 764 765 767 770 772 772 776 782 788 793 798 803 807 813 817 820 823 826 830 833 837 839 842 843 844 845 846 846 847 847 847 847 847 848 848
750 754 757 759 760 763 767 769 772 775 780 787 792 796 799 803 808 811 814 818 822 825 829 832 835 836 837 837 840 842 840 841 841 843 843 844 844 843
745 749 751 755 756 758 761 764 768 772 777 782 788 794 797 799 803 807 810 815 818 821 824 827 829 830 834 830 834 834 835 837 838 839 839 839 839 839
739 743 747 750 752 755 758 760 765 769 774 779 785 790 793 796 800 804 808 813 816 819 821 823 824 829 829 831 830 830 831 832 833 834 834 836 837 838
735 738 741 744 747 751 754 756 761 766 771 776 780 784 789 793 797 799 806 810 813 815 818 820 823 824 825 827 825 827 828 830 831 832 832 833 834 836
730 733 735 739 742 745 748 752 757 763 768 771 776 779 783 789 791 795 801 806 810 812 815 819 820 822 823 823 823 827 827 828 830 831 832 832 833 834
725 729 731 734 737 741 744 748 751 756 762 766 771 774 778 782 786 790 796 803 808 809 812 815 818 820 820 822 823 826 828 828 828 829 829 831 832 833
722 725 727 730 734 737 741 745 747 750 754 758 763 766 772 777 780 785 789 793 797 801 806 812 816 818 820 821 824 826 828 828 828 829 829 830 831 831
719 723 725 727 729 733 736 740 744 748 750 754 758 763 767 772 777 781 785 788 794 798 802 808 813 815 820 823 824 826 828 829 829 830 830 831 830 830
716 719 723 725 727 731 734 738 741 745 750 753 756 760 764 769 773 777 779 784 791 795 799 801 810 814 819 822 824 825 827 827 828 829 831 831 831 831
715 718 721 723 726 729 732 735 740 745 748 752 756 760 764 767 770 774 776 778 783 792 795 799 805 809 818 821 823 824 826 827 828 829 831 831 831 831
713 716 719 722 725 728 731 734 738 743 749 753 757 761 765 767 769 772 774 777 779 784 789 794 800 806 810 816 821 823 825 826 827 829 831 831 830 828
712 716 718 721 723 726 730 733 737 742 748 752 757 762 765 768 770 772 775 777 779 781 786 792 796 801 806 814 818 822 824 826 827 827 828 827 827 827
713 718 719 721 724 727 731 735 738 743 748 753 759 765 769 771 772 774 777 780 782 786 790 793 795 801 805 809 814 820 823 825 826 826 826 824 823 823
715 720 721 724 728 732 737 740 743 746 751 755 761 768 772 776 777 779 780 784 787 793 796 799 801 804 808 812 815 820 822 824 825 826 825 824 822 822
719 725 727 727 733 740 744 746 750 752 755 762 766 771 776 779 782 785 787 789 792 797 800 804 807 809 812 815 819 822 823 824 824 824 823 822 821 821
720 730 736 737 739 745 749 754 755 759 762 766 771 776 780 783 787 790 792 794 797 800 804 807 809 811 815 818 819 819 823 823 822 822 820 819 817 818
730 741 742 747 752 749 756 762 764 766 770 771 775 779 782 786 790 793 797 800 802 806 809 810 812 813 816 820 823 821 823 823 821 820 818 817 817 813
741 742 751 756 756 761 768 769 769 774 778 780 783 785 787 790 794 797 800 802 805 808 810 811 813 814 814 817 820 821 822 821 819 819 818 816 815 809
754 757 761 764 766 770 773 775 778 779 782 786 790 792 795 797 798 800 801 805 808 810 812 814 815 816 817 817 819 820 821 820 820 816 816 813 810 807
765 768 771 775 778 778 779 782 785 787 788 791 794 796 798 801 804 805 807 809 811 813 814 816 817 817 816 817 820 820 820 818 818 816 815 812 811 808
776 778 780 783 785 785 787 788 790 792 794 796 799 802 803 804 806 808 810 812 815 816 817 818 818 820 820 818 818 817 819 819 816 815 811 807 805 803